Weather Roundup
Issued by NWS

Home | Current Version | Previous Version | Graphics & Text | Print | Product List | Glossary Off
Versions: 1 2 3 4 5 6 7 8 9 10 11 12 13 14 15 16 17 18 19 20 21 22 23 24 25 26 27 28 29 30 31 32 33 34 35 36 37 38 39 40 41 42 43 44 45 46 47 48 49 50

000
NZUS93 KARX 222110
HRRWXR

CURRENT HOURLY OBSERVATIONS ACROSS
MUCH OF THE UPPER MISSISSIPPI VALLEY
NATIONAL WEATHER SERVICE LA CROSSE WI
400 PM CDT TUE JUL 22 2014


...SOUTHEAST MINNESOTA...


CITY           SKY/WX    TMP DP  RH WIND       PRES   REMARKS
ROCHESTER      SUNNY     82  66  58 NW9       30.04F
ROCHESTER/MAYO FAIR      82  61  49 NW10G20   30.03S
WINONA         MOSUNNY   86  64  48 W10G17    29.99F
AUSTIN         MOSUNNY   82  63  51 NW13      30.05R
ALBERT LEA     MOSUNNY   82  64  54 NW8       30.06R
DODGE CENTER   SUNNY     81  66  61 NW12      30.05S
PRESTON        SUNNY     81  72  74 NW12      30.04S
OWATONNA       MOSUNNY   82  63  51 NW15      30.06R
FARIBAULT      MOSUNNY   84  57  39 NW12      30.05S
$$

...ELSEWHERE IN MINNESOTA...


CITY           SKY/WX    TMP DP  RH WIND       PRES   REMARKS
MINNEAPOLIS    MOSUNNY   84  60  44 NW15G22   30.03S
INTNL FALLS    MOSUNNY   75  52  44 NW15G23   30.08R
DULUTH         MOSUNNY   77  56  48 N17G23    30.03R
RED WING       MOSUNNY   82  63  51 N7        30.01S
REDWOOD FALLS  SUNNY     84  56  38 NW13G20   30.10R
MANKATO        PTSUNNY   82  63  51 NW15      30.06R
WORTHINGTON    SUNNY     79  61  53 N10       30.17R
FAIRMONT       SUNNY     82  63  51 NW12      30.10R
$$

...SOUTHWEST WISCONSIN...


CITY           SKY/WX    TMP DP  RH WIND       PRES   REMARKS
LA CROSSE      MOSUNNY   89  67  47 NW15      29.97R HX  92
PRAIRIE DU CHI MOSUNNY   93  70  47 W9        29.93S HX  98
BOSCOBEL       MOSUNNY   96  73  47 NW12      29.92F HX 105
LONE ROCK      MOSUNNY   96  74  48 NW10      29.92F HX 107
PLATTEVILLE    MOSUNNY   90  75  62 W9        29.95F HX 100
FORT MC COY    MOSUNNY   87  65  47 W10       29.98R
CAMP DOUGLAS   MOSUNNY   86  72  62 NW12      29.96R HX  92
VIROQUA        FAIR      86  69  57 NW14      30.00R HX  90
WIS DELLS      MOSUNNY   89  70  53 W8        29.93S HX  95
$$

...ELSEWHERE IN WISCONSIN...


CITY           SKY/WX    TMP DP  RH WIND       PRES   REMARKS
MILWAUKEE      CLOUDY    87  73  62 SW14      29.91R HX  94
MADISON        PTSUNNY   92  74  55 W9        29.92S HX 101
GREEN BAY      PTSUNNY   89  73  59 NW15G23   29.87R HX  97
EAU CLAIRE     PTSUNNY   81  64  56 NW17G23   30.00R
BLACK RVR FLS  FAIR      88  63  43 NW9       29.97S
MEDFORD        CLOUDY    75  64  68 NW15      30.01R
WAUSAU         MOSUNNY   83  64  52 NW16      29.94R
WIS RAPIDS     SUNNY     88  66  48 NW17      29.97R HX  90
MARSHFIELD     MOSUNNY   81  66  60 NW15      29.97R
RICE LAKE      PTSUNNY   79  60  52 N8        30.04R
$$

...NORTHEAST IOWA...


CITY           SKY/WX    TMP DP  RH WIND       PRES   REMARKS
WATERLOO       MOSUNNY   92  69  47 NW13      29.97S HX  97
DUBUQUE        MOSUNNY   88  78  72 NW14      29.96F HX 101
DECORAH        SUNNY     86  72  62 NW9G17    29.99S HX  92
MASON CITY     SUNNY     86  68  54 NW15      30.06R
CHARLES CITY   SUNNY     84  70  61 N13G20    30.03R
OELWEIN        MOSUNNY   90  70  51 NW12G20   29.99S HX  95
$$

...ELSEWHERE IN IOWA...


CITY           SKY/WX    TMP DP  RH WIND       PRES   REMARKS
DES MOINES     MOSUNNY   91  74  57 N12       30.01S HX 100
IOWA CITY      PTSUNNY   88  79  74 NW10G22   29.98R HX 103
FORT DODGE     PTSUNNY   82  70  65 NW8       30.09R
MARSHALLTOWN   PTSUNNY   89  72  56 NW12      30.01R HX  96
CEDAR RAPIDS   PTSUNNY   89  76  65 NW10      29.96S HX 100
$$

...NORTHERN ILLINOIS...


CITY           SKY/WX    TMP DP  RH WIND       PRES   REMARKS
CHICAGO-OHARE  PTSUNNY   90  71  53 SW16      29.93S HX  96
DUPAGE         MOSUNNY   89  74  60 SW17      29.96R HX  98
CHICAGO-MIDWAY MOSUNNY   90  73  57 SW16G25   29.93F HX  98
MOLINE         MOSUNNY   86  76  71 SW9       29.95F HX  96
ROCKFORD       MOSUNNY   90  77  65 W7        29.95F HX 103
STERLING       MOSUNNY   91  79  66 W10       29.96S HX 107
PEORIA         PTSUNNY   87  73  62 SW10      29.99S HX  94
$$

NOTE: "FAIR" INDICATES FEW OR NO CLOUDS BELOW 12,000 FEET WITH NO
SIGNIFICANT WEATHER AND/OR OBSTRUCTIONS TO VISIBILITY. WIND
SPEEDS ARE IN MILES-PER-HOUR.



USA.gov is the U.S. government's official web portal to all federal, state and local government web resources and services.